Location: Buchloe
(48.0161°N, 10.7316°E)
Time: 04:09:12
(UTC+02:00)

ISS - Pass Details

Date: 09 July 2025
Orbit: 413 x 417 km, 51.6° (Epoch: 12 July)

Event Time Altitude Azimuth Distance (km) Brightness Sun altitude
Rises 21:58:15 0° 220° (SW) 2,338 0.0 -6.2°
Reaches altitude 10° 22:00:26 10° 210° (SSW) 1,480 -1.1 -6.5°
Maximum altitude 22:03:27 33° 144° (SE) 723 -3.1 -6.8°
Drops below altitude 10° 22:06:30 10° 79° (E) 1,490 -1.3 -7.2°
Sets 22:08:42 0° 70° (ENE) 2,356 -0.2 -7.4°
